Tracking 19176 objects as of 26-May-2018
HD Live streaming from Space Station
objects crossing your sky now

FENGYUN 1C DEB

Track FENGYUN 1C DEB now!
10-day predictions


NORAD ID: 29877
Int'l Code: 1999-025FX
Perigee: 798.5 km
Apogee: 867.6 km
Inclination: 98.7 °
Period: 101.4 minutes
Semi major axis: 7204 km
RCS: 0.045 m2 (small)
Launch date: May 10, 1999
Source: People's Republic of China (PRC)
Launch site: Taiyaun Space Center, China (TSC)

Note: This is SATELLITE DEBRIS
aabbcc
Your satellite tracking list
Your tracking list is empty




NASA's NSSDC Master Catalog

Two Line Element Set (TLE):
1 29877U 99025FX  18145.61278626 +.00000175 +00000-0 +10243-3 0  9991
2 29877 098.7488 179.4780 0047911 281.9431 194.0044 14.19834938587962
Source of the keplerian elements: AFSPC